Time,TemperatureF,DewpointF,PressureIn,WindDirection,WindDirectionDegrees,WindSpeedMPH,WindSpeedGustMPH,Humidity,HourlyPrecipIn,Conditions,Clouds,dailyrainin,SoftwareType,DateUTC
2013-11-26 00:00:00,27.0,11.7,30.20,WSW,248,4.0,4.7,52,0.00,,,0.00,WUHU216HW,2013-11-26 05:00:00,
2013-11-26 00:01:00,27.0,11.7,30.20,WSW,248,4.0,4.7,52,0.00,,,0.00,WUHU216HW,2013-11-26 05:01:00,
2013-11-26 00:02:00,27.0,11.7,30.20,SW,225,3.4,4.7,52,0.00,,,0.00,WUHU216HW,2013-11-26 05:02:00,
2013-11-26 00:07:00,27.0,11.7,30.20,WNW,293,4.9,6.0,52,0.00,,,0.00,WUHU216HW,2013-11-26 05:07:00,
2013-11-26 00:12:00,27.2,11.8,30.19,SW,225,2.0,6.0,52,0.00,,,0.00,WUHU216HW,2013-11-26 05:12:00,
2013-11-26 00:17:00,27.2,11.8,30.20,South,180,3.8,4.7,52,0.00,,,0.00,WUHU216HW,2013-11-26 05:17:00,
2013-11-26 00:22:00,27.2,11.8,30.19,SW,225,3.4,6.3,52,0.00,,,0.00,WUHU216HW,2013-11-26 05:22:00,
2013-11-26 00:27:00,27.2,11.8,30.19,SW,225,0.9,6.3,52,0.00,,,0.00,WUHU216HW,2013-11-26 05:27:00,
2013-11-26 00:32:00,27.2,11.8,30.19,WNW,293,2.9,7.4,52,0.00,,,0.00,WUHU216HW,2013-11-26 05:32:00,
2013-11-26 00:37:00,27.2,11.8,30.19,SSW,203,2.2,7.4,52,0.00,,,0.00,WUHU216HW,2013-11-26 05:37:00,
2013-11-26 00:42:00,27.2,11.8,30.19,WSW,248,4.3,5.4,52,0.00,,,0.00,WUHU216HW,2013-11-26 05:42:00,
2013-11-26 00:47:00,27.2,11.8,30.18,West,270,2.5,6.3,52,0.00,,,0.00,WUHU216HW,2013-11-26 05:47:00,
2013-11-26 00:52:00,27.2,11.8,30.19,SE,135,2.9,7.2,52,0.00,,,0.00,WUHU216HW,2013-11-26 05:52:00,
2013-11-26 00:57:00,27.2,11.8,30.19,NNW,338,1.3,7.2,52,0.00,,,0.00,WUHU216HW,2013-11-26 05:57:00,
2013-11-26 01:02:00,27.2,11.8,30.19,SW,225,1.1,6.9,52,0.00,,,0.00,WUHU216HW,2013-11-26 06:02:00,
2013-11-26 01:07:00,27.2,11.8,30.19,SW,225,2.9,6.9,52,0.00,,,0.00,WUHU216HW,2013-11-26 06:07:00,
2013-11-26 01:12:00,27.2,11.8,30.19,SSW,203,3.1,6.9,52,0.00,,,0.00,WUHU216HW,2013-11-26 06:12:00,
2013-11-26 01:17:00,27.2,11.8,30.19,SW,225,2.2,4.5,52,0.00,,,0.00,WUHU216HW,2013-11-26 06:17:00,
2013-11-26 01:22:00,27.2,11.8,30.19,WSW,248,1.1,4.5,52,0.00,,,0.00,WUHU216HW,2013-11-26 06:22:00,
2013-11-26 01:27:00,27.2,12.3,30.19,WSW,248,1.1,6.3,53,0.00,,,0.00,WUHU216HW,2013-11-26 06:27:00,
2013-11-26 01:32:00,27.2,12.3,30.19,West,270,2.9,6.3,53,0.00,,,0.00,WUHU216HW,2013-11-26 06:32:00,
2013-11-26 01:37:00,27.0,12.1,30.19,SSW,203,3.4,6.5,53,0.00,,,0.00,WUHU216HW,2013-11-26 06:37:00,
2013-11-26 01:42:00,27.0,12.1,30.20,WSW,248,3.4,6.5,53,0.00,,,0.00,WUHU216HW,2013-11-26 06:42:00,
2013-11-26 01:47:00,27.0,12.1,30.19,WNW,293,2.9,3.8,53,0.00,,,0.00,WUHU216HW,2013-11-26 06:47:00,
2013-11-26 01:52:00,27.0,12.1,30.19,West,270,4.0,4.0,53,0.00,,,0.00,WUHU216HW,2013-11-26 06:52:00,
2013-11-26 01:57:00,27.0,12.1,30.19,WNW,293,2.5,4.0,53,0.00,,,0.00,WUHU216HW,2013-11-26 06:57:00,
2013-11-26 02:02:00,27.0,12.1,30.19,WNW,293,3.1,4.0,53,0.00,,,0.00,WUHU216HW,2013-11-26 07:02:00,
2013-11-26 02:07:00,27.0,12.1,30.18,WSW,248,3.4,3.4,53,0.00,,,0.00,WUHU216HW,2013-11-26 07:07:00,
2013-11-26 02:12:00,27.0,12.5,30.19,WSW,248,3.6,3.6,54,0.00,,,0.00,WUHU216HW,2013-11-26 07:12:00,
2013-11-26 02:17:00,27.0,12.5,30.18,SW,225,4.0,4.0,54,0.00,,,0.00,WUHU216HW,2013-11-26 07:17:00,
2013-11-26 02:22:00,27.0,12.5,30.18,NW,315,1.3,4.0,54,0.00,,,0.00,WUHU216HW,2013-11-26 07:22:00,
2013-11-26 02:27:00,27.0,12.1,30.19,WNW,293,1.1,3.6,53,0.00,,,0.00,WUHU216HW,2013-11-26 07:27:00,
2013-11-26 02:32:00,27.0,12.5,30.19,WSW,248,1.8,3.4,54,0.00,,,0.00,WUHU216HW,2013-11-26 07:32:00,
2013-11-26 02:37:00,27.0,12.5,30.19,SW,225,3.4,4.0,54,0.00,,,0.00,WUHU216HW,2013-11-26 07:37:00,
2013-11-26 02:42:00,27.0,12.5,30.18,West,270,3.4,4.0,54,0.00,,,0.00,WUHU216HW,2013-11-26 07:42:00,
2013-11-26 02:47:00,27.0,12.5,30.18,NW,315,1.8,3.4,54,0.00,,,0.00,WUHU216HW,2013-11-26 07:47:00,
2013-11-26 02:52:00,27.0,12.5,30.19,SW,225,4.0,4.0,54,0.00,,,0.00,WUHU216HW,2013-11-26 07:52:00,
2013-11-26 02:57:00,27.0,12.5,30.20,NNW,338,2.7,4.0,54,0.00,,,0.00,WUHU216HW,2013-11-26 07:57:00,
2013-11-26 03:02:00,27.0,12.5,30.19,WNW,293,4.0,4.0,54,0.00,,,0.00,WUHU216HW,2013-11-26 08:02:00,
2013-11-26 03:07:00,27.0,12.5,30.18,WNW,293,1.6,4.0,54,0.00,,,0.00,WUHU216HW,2013-11-26 08:07:00,
2013-11-26 03:12:00,27.0,12.5,30.17,South,180,0.4,2.0,54,0.00,,,0.00,WUHU216HW,2013-11-26 08:12:00,
2013-11-26 03:17:00,27.0,12.5,30.17,SSE,158,0.4,2.0,54,0.00,,,0.00,WUHU216HW,2013-11-26 08:17:00,
2013-11-26 03:22:00,27.0,13.0,30.16,South,180,2.0,2.0,55,0.00,,,0.00,WUHU216HW,2013-11-26 08:22:00,
2013-11-26 03:27:00,27.2,13.2,30.15,SE,135,0.0,2.0,55,0.00,,,0.00,WUHU216HW,2013-11-26 08:27:00,
2013-11-26 03:32:00,27.2,13.2,30.15,South,180,0.4,1.3,55,0.00,,,0.00,WUHU216HW,2013-11-26 08:32:00,
2013-11-26 03:37:00,27.2,13.2,30.16,West,270,0.4,0.7,55,0.00,,,0.00,WUHU216HW,2013-11-26 08:37:00,
2013-11-26 03:42:00,27.2,13.2,30.17,NNW,338,0.2,0.9,55,0.00,,,0.00,WUHU216HW,2013-11-26 08:42:00,
2013-11-26 03:47:00,27.2,13.2,30.18,West,270,1.1,1.8,55,0.00,,,0.00,WUHU216HW,2013-11-26 08:47:00,
2013-11-26 03:52:00,27.2,13.2,30.18,WSW,248,1.1,1.8,55,0.00,,,0.00,WUHU216HW,2013-11-26 08:52:00,
2013-11-26 03:57:00,27.2,13.2,30.18,SW,225,0.4,1.1,55,0.00,,,0.00,WUHU216HW,2013-11-26 08:57:00,
2013-11-26 04:02:00,27.2,13.2,30.18,WNW,293,0.0,1.1,55,0.00,,,0.00,WUHU216HW,2013-11-26 09:02:00,
2013-11-26 04:07:00,27.2,13.2,30.17,SW,225,1.3,1.3,55,0.00,,,0.00,WUHU216HW,2013-11-26 09:07:00,
2013-11-26 04:12:00,27.3,13.2,30.16,SSE,158,0.0,1.3,55,0.00,,,0.00,WUHU216HW,2013-11-26 09:12:00,
2013-11-26 04:17:00,27.3,13.2,30.16,SE,135,0.0,0.4,55,0.00,,,0.00,WUHU216HW,2013-11-26 09:17:00,
2013-11-26 04:22:00,27.3,13.2,30.16,SSW,203,0.4,1.8,55,0.00,,,0.00,WUHU216HW,2013-11-26 09:22:00,
2013-11-26 04:27:00,27.3,13.2,30.16,SSE,158,0.9,1.8,55,0.00,,,0.00,WUHU216HW,2013-11-26 09:27:00,
2013-11-26 04:32:00,27.3,13.2,30.17,WNW,293,0.2,0.9,55,0.00,,,0.00,WUHU216HW,2013-11-26 09:32:00,
2013-11-26 04:37:00,27.3,13.2,30.18,West,270,0.2,1.1,55,0.00,,,0.00,WUHU216HW,2013-11-26 09:37:00,
2013-11-26 04:42:00,27.5,13.4,30.18,SW,225,0.0,2.5,55,0.00,,,0.00,WUHU216HW,2013-11-26 09:42:00,
2013-11-26 04:47:00,27.5,13.4,30.18,SSE,158,0.2,2.5,55,0.00,,,0.00,WUHU216HW,2013-11-26 09:47:00,
2013-11-26 04:52:00,27.5,13.4,30.19,SSW,203,2.7,2.7,55,0.00,,,0.00,WUHU216HW,2013-11-26 09:52:00,
2013-11-26 04:57:00,27.5,13.4,30.19,West,270,1.8,2.7,55,0.00,,,0.00,WUHU216HW,2013-11-26 09:57:00,
2013-11-26 05:02:00,27.5,13.4,30.20,WSW,248,1.1,1.8,55,0.00,,,0.00,WUHU216HW,2013-11-26 10:02:00,
2013-11-26 05:07:00,27.5,13.4,30.19,SSE,158,0.9,1.8,55,0.00,,,0.00,WUHU216HW,2013-11-26 10:07:00,
2013-11-26 05:12:00,27.5,13.4,30.19,SE,135,0.4,1.8,55,0.00,,,0.00,WUHU216HW,2013-11-26 10:12:00,
2013-11-26 05:17:00,27.5,13.4,30.19,South,180,0.0,0.7,55,0.00,,,0.00,WUHU216HW,2013-11-26 10:17:00,
2013-11-26 05:22:00,27.5,13.9,30.19,West,270,0.0,0.4,56,0.00,,,0.00,WUHU216HW,2013-11-26 10:22:00,
2013-11-26 05:27:00,27.5,13.9,30.19,SE,135,0.4,0.7,56,0.00,,,0.00,WUHU216HW,2013-11-26 10:27:00,
2013-11-26 05:32:00,27.7,14.0,30.19,SE,135,0.2,0.9,56,0.00,,,0.00,WUHU216HW,2013-11-26 10:32:00,
2013-11-26 05:37:00,27.7,14.0,30.18,SSE,158,1.3,1.3,56,0.00,,,0.00,WUHU216HW,2013-11-26 10:37:00,
2013-11-26 05:42:00,27.7,14.0,30.19,West,270,0.2,1.3,56,0.00,,,0.00,WUHU216HW,2013-11-26 10:42:00,
2013-11-26 05:47:00,27.9,14.2,30.19,SW,225,0.0,0.7,56,0.00,,,0.00,WUHU216HW,2013-11-26 10:47:00,
2013-11-26 05:52:00,27.9,14.2,30.19,SW,225,0.9,0.9,56,0.00,,,0.00,WUHU216HW,2013-11-26 10:52:00,
2013-11-26 05:57:00,27.9,14.2,30.19,WSW,248,0.0,0.9,56,0.00,,,0.00,WUHU216HW,2013-11-26 10:57:00,
2013-11-26 06:02:00,27.9,14.2,30.18,SE,135,0.4,0.9,56,0.00,,,0.00,WUHU216HW,2013-11-26 11:02:00,
2013-11-26 06:07:00,27.9,14.2,30.18,SE,135,0.0,0.9,56,0.00,,,0.00,WUHU216HW,2013-11-26 11:07:00,
2013-11-26 06:12:00,27.9,14.2,30.18,SW,225,1.3,1.3,56,0.00,,,0.00,WUHU216HW,2013-11-26 11:12:00,
2013-11-26 06:17:00,27.9,14.2,30.19,WSW,248,0.4,1.3,56,0.00,,,0.00,WUHU216HW,2013-11-26 11:17:00,
2013-11-26 06:22:00,27.9,14.2,30.19,SSW,203,0.0,1.1,56,0.00,,,0.00,WUHU216HW,2013-11-26 11:22:00,
2013-11-26 06:27:00,27.9,14.2,30.20,SSE,158,0.2,1.1,56,0.00,,,0.00,WUHU216HW,2013-11-26 11:27:00,
2013-11-26 06:32:00,28.1,14.4,30.19,SW,225,0.4,0.7,56,0.00,,,0.00,WUHU216HW,2013-11-26 11:32:00,
2013-11-26 06:37:00,28.1,14.4,30.19,SW,225,0.0,0.9,56,0.00,,,0.00,WUHU216HW,2013-11-26 11:37:00,
2013-11-26 06:42:00,28.1,14.4,30.20,West,270,0.2,0.9,56,0.00,,,0.00,WUHU216HW,2013-11-26 11:42:00,
2013-11-26 06:47:00,28.1,14.4,30.20,West,270,0.2,0.7,56,0.00,,,0.00,WUHU216HW,2013-11-26 11:47:00,
2013-11-26 06:52:00,28.1,14.4,30.20,West,270,0.4,1.8,56,0.00,,,0.00,WUHU216HW,2013-11-26 11:52:00,
2013-11-26 06:57:00,28.1,14.4,30.20,West,270,0.4,1.8,56,0.00,,,0.00,WUHU216HW,2013-11-26 11:57:00,
2013-11-26 07:02:00,28.1,14.4,30.20,WNW,293,0.4,1.1,56,0.00,,,0.00,WUHU216HW,2013-11-26 12:02:00,
2013-11-26 07:07:00,28.1,14.0,30.19,WNW,293,1.8,1.8,55,0.00,,,0.00,WUHU216HW,2013-11-26 12:07:00,
2013-11-26 07:12:00,28.2,14.1,30.19,NW,315,0.0,1.8,55,0.00,,,0.00,WUHU216HW,2013-11-26 12:12:00,
2013-11-26 07:17:00,28.2,14.5,30.18,SW,225,0.4,2.9,56,0.00,,,0.00,WUHU216HW,2013-11-26 12:17:00,
2013-11-26 07:22:00,28.2,14.5,30.18,WSW,248,0.0,2.9,56,0.00,,,0.00,WUHU216HW,2013-11-26 12:22:00,
2013-11-26 07:27:00,28.2,14.1,30.18,WNW,293,0.0,1.6,55,0.00,,,0.00,WUHU216HW,2013-11-26 12:27:00,
2013-11-26 07:32:00,28.2,14.1,30.19,WSW,248,2.9,2.9,55,0.00,,,0.00,WUHU216HW,2013-11-26 12:32:00,
2013-11-26 07:37:00,28.2,14.1,30.19,NNW,338,2.5,2.9,55,0.00,,,0.00,WUHU216HW,2013-11-26 12:37:00,
2013-11-26 07:42:00,28.2,14.1,30.20,West,270,1.3,2.9,55,0.00,,,0.00,WUHU216HW,2013-11-26 12:42:00,
2013-11-26 07:47:00,28.2,14.1,30.20,NW,315,1.8,2.9,55,0.00,,,0.00,WUHU216HW,2013-11-26 12:47:00,
2013-11-26 07:52:00,28.2,14.1,30.20,West,270,1.8,2.7,55,0.00,,,0.00,WUHU216HW,2013-11-26 12:52:00,
2013-11-26 07:57:00,28.2,14.1,30.20,SW,225,0.7,2.2,55,0.00,,,0.00,WUHU216HW,2013-11-26 12:57:00,
2013-11-26 08:02:00,28.2,14.1,30.20,NW,315,0.7,1.1,55,0.00,,,0.00,WUHU216HW,2013-11-26 13:02:00,
2013-11-26 08:07:00,28.2,14.1,30.20,WNW,293,0.7,1.1,55,0.00,,,0.00,WUHU216HW,2013-11-26 13:07:00,
2013-11-26 08:12:00,28.4,14.3,30.20,NW,315,0.2,0.9,55,0.00,,,0.00,WUHU216HW,2013-11-26 13:12:00,
2013-11-26 08:17:00,28.4,14.3,30.20,WNW,293,2.5,2.5,55,0.00,,,0.00,WUHU216HW,2013-11-26 13:17:00,
2013-11-26 08:22:00,28.4,14.3,30.19,WNW,293,1.3,2.5,55,0.00,,,0.00,WUHU216HW,2013-11-26 13:22:00,
2013-11-26 08:27:00,28.4,14.3,30.19,NW,315,1.1,1.6,55,0.00,,,0.00,WUHU216HW,2013-11-26 13:27:00,
2013-11-26 08:32:00,28.4,14.3,30.18,North,0,0.4,1.6,55,0.00,,,0.00,WUHU216HW,2013-11-26 13:32:00,
2013-11-26 08:37:00,28.6,14.5,30.19,SW,225,0.2,1.1,55,0.00,,,0.00,WUHU216HW,2013-11-26 13:37:00,
2013-11-26 08:42:00,28.6,14.5,30.20,NW,315,0.0,1.3,55,0.00,,,0.00,WUHU216HW,2013-11-26 13:42:00,
2013-11-26 08:47:00,28.6,14.5,30.19,NW,315,0.0,1.3,55,0.00,,,0.00,WUHU216HW,2013-11-26 13:47:00,
2013-11-26 08:52:00,28.6,14.5,30.20,NW,315,0.0,0.9,55,0.00,,,0.00,WUHU216HW,2013-11-26 13:52:00,
2013-11-26 08:57:00,28.6,14.5,30.20,NNW,338,0.9,0.9,55,0.00,,,0.00,WUHU216HW,2013-11-26 13:57:00,
2013-11-26 09:02:00,28.6,14.5,30.20,NNW,338,0.0,0.9,55,0.00,,,0.00,WUHU216HW,2013-11-26 14:02:00,
2013-11-26 09:07:00,28.6,14.5,30.20,NE,45,0.4,0.4,55,0.00,,,0.00,WUHU216HW,2013-11-26 14:07:00,
2013-11-26 09:12:00,28.6,14.9,30.20,NNE,23,0.0,0.4,56,0.00,,,0.00,WUHU216HW,2013-11-26 14:12:00,
2013-11-26 09:17:00,28.6,14.9,30.20,ENE,68,0.0,2.0,56,0.00,,,0.00,WUHU216HW,2013-11-26 14:17:00,
2013-11-26 09:22:00,28.8,15.1,30.20,NNE,23,0.0,2.0,56,0.00,,,0.00,WUHU216HW,2013-11-26 14:22:00,
2013-11-26 09:27:00,28.8,15.1,30.20,NNW,338,0.4,0.4,56,0.00,,,0.00,WUHU216HW,2013-11-26 14:27:00,
2013-11-26 09:32:00,28.8,15.1,30.20,NNW,338,0.0,0.4,56,0.00,,,0.00,WUHU216HW,2013-11-26 14:32:00,
2013-11-26 09:37:00,29.0,15.3,30.20,NNW,338,0.0,0.0,56,0.00,,,0.00,WUHU216HW,2013-11-26 14:37:00,
2013-11-26 09:42:00,29.0,15.3,30.20,NNW,338,1.1,1.1,56,0.00,,,0.00,WUHU216HW,2013-11-26 14:42:00,
2013-11-26 09:47:00,29.1,15.4,30.20,NW,315,0.0,1.1,56,0.00,,,0.00,WUHU216HW,2013-11-26 14:47:00,
2013-11-26 09:52:00,29.3,16.0,30.20,North,0,0.0,0.7,57,0.00,,,0.00,WUHU216HW,2013-11-26 14:52:00,
2013-11-26 09:57:00,29.3,16.0,30.20,North,0,0.0,0.7,57,0.00,,,0.00,WUHU216HW,2013-11-26 14:57:00,
2013-11-26 10:02:00,29.3,16.0,30.20,NNW,338,0.2,0.4,57,0.00,,,0.00,WUHU216HW,2013-11-26 15:02:00,
2013-11-26 10:07:00,29.5,16.2,30.19,WNW,293,1.1,1.1,57,0.00,,,0.00,WUHU216HW,2013-11-26 15:07:00,
2013-11-26 10:12:00,29.7,16.3,30.19,WNW,293,0.2,1.1,57,0.00,,,0.00,WUHU216HW,2013-11-26 15:12:00,
2013-11-26 10:17:00,29.9,16.5,30.19,WNW,293,0.7,0.7,57,0.00,,,0.00,WUHU216HW,2013-11-26 15:17:00,
2013-11-26 10:22:00,30.0,17.0,30.18,SW,225,0.7,0.7,58,0.00,,,0.00,WUHU216HW,2013-11-26 15:22:00,
2013-11-26 10:27:00,30.2,17.2,30.18,NW,315,1.8,1.8,58,0.00,,,0.00,WUHU216HW,2013-11-26 15:27:00,
2013-11-26 10:32:00,30.4,17.4,30.18,WSW,248,0.4,2.2,58,0.00,,,0.00,WUHU216HW,2013-11-26 15:32:00,
2013-11-26 10:37:00,30.8,17.4,30.18,SW,225,0.4,2.2,57,0.00,,,0.00,WUHU216HW,2013-11-26 15:37:00,
2013-11-26 10:42:00,30.8,17.4,30.18,SSE,158,3.1,3.1,57,0.00,,,0.00,WUHU216HW,2013-11-26 15:42:00,
2013-11-26 10:47:00,30.9,17.5,30.18,SE,135,0.7,3.1,57,0.00,,,0.00,WUHU216HW,2013-11-26 15:47:00,
2013-11-26 10:52:00,31.1,17.7,30.18,SE,135,2.5,2.5,57,0.00,,,0.00,WUHU216HW,2013-11-26 15:52:00,
2013-11-26 10:57:00,31.3,17.8,30.18,SE,135,0.0,2.7,57,0.00,,,0.00,WUHU216HW,2013-11-26 15:57:00,
2013-11-26 11:02:00,31.5,18.0,30.18,South,180,0.4,3.1,57,0.00,,,0.00,WUHU216HW,2013-11-26 16:02:00,
2013-11-26 11:07:00,31.5,18.0,30.18,WSW,248,0.2,3.1,57,0.00,,,0.00,WUHU216HW,2013-11-26 16:07:00,
2013-11-26 11:12:00,31.5,17.6,30.18,South,180,1.3,1.8,56,0.00,,,0.00,WUHU216HW,2013-11-26 16:12:00,
2013-11-26 11:17:00,31.5,17.6,30.18,ENE,68,0.2,2.2,56,0.00,,,0.00,WUHU216HW,2013-11-26 16:17:00,
2013-11-26 11:22:00,31.7,17.8,30.18,SSW,203,0.4,2.5,56,0.00,,,0.00,WUHU216HW,2013-11-26 16:22:00,
2013-11-26 11:27:00,31.7,17.8,30.17,South,180,1.3,2.5,56,0.00,,,0.00,WUHU216HW,2013-11-26 16:27:00,
2013-11-26 11:32:00,31.7,17.8,30.17,SSE,158,2.2,2.5,56,0.00,,,0.00,WUHU216HW,2013-11-26 16:32:00,
2013-11-26 11:37:00,31.8,18.3,30.17,South,180,0.4,3.4,57,0.00,,,0.00,WUHU216HW,2013-11-26 16:37:00,
2013-11-26 11:42:00,31.8,18.3,30.17,SSE,158,1.3,3.4,57,0.00,,,0.00,WUHU216HW,2013-11-26 16:42:00,
2013-11-26 11:47:00,31.8,18.7,30.17,SSE,158,0.4,2.7,58,0.00,,,0.00,WUHU216HW,2013-11-26 16:47:00,
2013-11-26 11:52:00,31.8,18.7,30.16,South,180,2.5,2.5,58,0.00,,,0.00,WUHU216HW,2013-11-26 16:52:00,
2013-11-26 11:57:00,31.8,18.7,30.16,SE,135,0.4,2.5,58,0.00,,,0.00,WUHU216HW,2013-11-26 16:57:00,
2013-11-26 12:02:00,31.8,19.1,30.16,ESE,113,1.1,1.8,59,0.00,,,0.00,WUHU216HW,2013-11-26 17:02:00,
2013-11-26 12:07:00,31.8,19.1,30.15,SE,135,1.3,1.8,59,0.00,,,0.00,WUHU216HW,2013-11-26 17:07:00,
2013-11-26 12:12:00,31.8,19.1,30.15,South,180,0.0,1.3,59,0.00,,,0.00,WUHU216HW,2013-11-26 17:12:00,
2013-11-26 12:17:00,31.8,19.1,30.15,ESE,113,1.1,1.1,59,0.00,,,0.00,WUHU216HW,2013-11-26 17:17:00,
2013-11-26 12:22:00,31.8,19.5,30.15,SSE,158,0.9,1.8,60,0.00,,,0.00,WUHU216HW,2013-11-26 17:22:00,
2013-11-26 12:27:00,31.8,19.5,30.15,ESE,113,0.2,1.8,60,0.00,,,0.00,WUHU216HW,2013-11-26 17:27:00,
2013-11-26 12:32:00,31.8,19.9,30.15,SE,135,1.1,2.0,61,0.00,,,0.00,WUHU216HW,2013-11-26 17:32:00,
2013-11-26 12:37:00,31.7,19.8,30.15,ESE,113,0.7,2.0,61,0.00,,,0.00,WUHU216HW,2013-11-26 17:37:00,
2013-11-26 12:42:00,31.7,19.8,30.14,South,180,1.1,1.8,61,0.00,,,0.00,WUHU216HW,2013-11-26 17:42:00,
2013-11-26 12:47:00,31.5,20.0,30.14,SSE,158,0.9,1.8,62,0.00,,,0.00,WUHU216HW,2013-11-26 17:47:00,
2013-11-26 12:52:00,31.5,20.0,30.14,NE,45,1.8,1.8,62,0.00,,,0.00,WUHU216HW,2013-11-26 17:52:00,
2013-11-26 12:57:00,31.5,20.0,30.13,SE,135,0.2,1.8,62,0.00,,,0.00,WUHU216HW,2013-11-26 17:57:00,
2013-11-26 13:02:00,31.5,20.4,30.13,South,180,1.1,1.6,63,0.00,,,0.00,WUHU216HW,2013-11-26 18:02:00,
2013-11-26 13:07:00,31.3,20.2,30.13,SSE,158,0.4,1.6,63,0.00,,,0.00,WUHU216HW,2013-11-26 18:07:00,
2013-11-26 13:12:00,31.3,20.6,30.12,South,180,1.3,1.3,64,0.00,,,0.00,WUHU216HW,2013-11-26 18:12:00,
2013-11-26 13:17:00,31.3,20.6,30.12,SE,135,1.1,1.3,64,0.00,,,0.00,WUHU216HW,2013-11-26 18:17:00,
2013-11-26 13:22:00,31.3,20.6,30.12,NE,45,0.0,1.1,64,0.00,,,0.00,WUHU216HW,2013-11-26 18:22:00,
2013-11-26 13:27:00,31.1,20.8,30.12,SE,135,0.4,4.0,65,0.00,,,0.00,WUHU216HW,2013-11-26 18:27:00,
2013-11-26 13:32:00,31.1,20.8,30.11,ESE,113,0.2,4.0,65,0.00,,,0.00,WUHU216HW,2013-11-26 18:32:00,
2013-11-26 13:37:00,31.1,21.1,30.11,NNE,23,0.2,1.8,66,0.00,,,0.00,WUHU216HW,2013-11-26 18:37:00,
2013-11-26 13:42:00,31.1,21.1,30.11,SE,135,0.9,1.8,66,0.00,,,0.00,WUHU216HW,2013-11-26 18:42:00,
2013-11-26 13:47:00,31.1,21.1,30.11,SE,135,1.3,1.8,66,0.00,,,0.00,WUHU216HW,2013-11-26 18:47:00,
2013-11-26 13:52:00,31.1,21.5,30.11,South,180,2.2,2.2,67,0.00,,,0.00,WUHU216HW,2013-11-26 18:52:00,
2013-11-26 13:57:00,30.9,21.3,30.11,ESE,113,0.9,2.9,67,0.00,,,0.00,WUHU216HW,2013-11-26 18:57:00,
2013-11-26 14:02:00,30.9,21.3,30.10,East,90,0.0,4.3,67,0.00,,,0.00,WUHU216HW,2013-11-26 19:02:00,
2013-11-26 14:07:00,30.9,21.6,30.10,SE,135,0.4,4.3,68,0.00,,,0.00,WUHU216HW,2013-11-26 19:07:00,
2013-11-26 14:12:00,30.9,21.6,30.10,SE,135,1.3,1.8,68,0.00,,,0.00,WUHU216HW,2013-11-26 19:12:00,
2013-11-26 14:17:00,30.8,21.9,30.10,SSW,203,0.7,1.8,69,0.00,,,0.00,WUHU216HW,2013-11-26 19:17:00,
2013-11-26 14:22:00,30.8,21.9,30.09,East,90,0.4,1.3,69,0.00,,,0.00,WUHU216HW,2013-11-26 19:22:00,
2013-11-26 14:27:00,30.8,21.9,30.09,ESE,113,1.8,1.8,69,0.00,,,0.00,WUHU216HW,2013-11-26 19:27:00,
2013-11-26 14:32:00,30.8,22.2,30.09,NNW,338,0.4,1.8,70,0.00,,,0.00,WUHU216HW,2013-11-26 19:32:00,
2013-11-26 14:37:00,30.8,21.9,30.09,SE,135,0.2,0.9,69,0.00,,,0.00,WUHU216HW,2013-11-26 19:37:00,
2013-11-26 14:42:00,30.8,22.2,30.08,NNW,338,0.2,0.9,70,0.00,,,0.00,WUHU216HW,2013-11-26 19:42:00,
2013-11-26 14:47:00,30.8,22.2,30.08,NNW,338,0.4,1.6,70,0.00,,,0.00,WUHU216HW,2013-11-26 19:47:00,
2013-11-26 14:52:00,30.8,22.2,30.08,East,90,0.4,1.6,70,0.00,,,0.00,WUHU216HW,2013-11-26 19:52:00,
2013-11-26 14:57:00,30.8,22.2,30.08,SE,135,1.1,1.3,70,0.00,,,0.00,WUHU216HW,2013-11-26 19:57:00,
2013-11-26 15:02:00,30.8,22.6,30.08,SE,135,1.8,1.8,71,0.00,,,0.00,WUHU216HW,2013-11-26 20:02:00,
2013-11-26 15:07:00,30.8,22.6,30.07,SE,135,3.1,3.1,71,0.00,,,0.00,WUHU216HW,2013-11-26 20:07:00,
2013-11-26 15:12:00,30.8,22.6,30.07,SSW,203,1.1,3.1,71,0.00,,,0.00,WUHU216HW,2013-11-26 20:12:00,
2013-11-26 15:17:00,30.8,22.9,30.07,North,0,1.1,2.2,72,0.00,,,0.00,WUHU216HW,2013-11-26 20:17:00,
2013-11-26 15:22:00,30.8,22.9,30.07,NNW,338,0.9,2.2,72,0.00,,,0.00,WUHU216HW,2013-11-26 20:22:00,
2013-11-26 15:27:00,30.6,22.7,30.07,NNW,338,0.4,1.8,72,0.00,,,0.00,WUHU216HW,2013-11-26 20:27:00,
2013-11-26 15:32:00,30.6,23.0,30.07,East,90,1.1,2.0,73,0.00,,,0.00,WUHU216HW,2013-11-26 20:32:00,
2013-11-26 15:37:00,30.4,22.8,30.07,SSW,203,0.4,2.0,73,0.00,,,0.00,WUHU216HW,2013-11-26 20:37:00,
2013-11-26 15:42:00,30.4,22.8,30.06,SSW,203,0.2,2.0,73,0.00,,,0.00,WUHU216HW,2013-11-26 20:42:00,
2013-11-26 15:47:00,30.4,22.8,30.06,ESE,113,0.7,4.0,73,0.00,,,0.00,WUHU216HW,2013-11-26 20:47:00,
2013-11-26 15:52:00,30.4,22.8,30.06,West,270,0.7,4.0,73,0.00,,,0.00,WUHU216HW,2013-11-26 20:52:00,
2013-11-26 15:57:00,30.4,23.1,30.06,SE,135,1.3,4.3,74,0.00,,,0.00,WUHU216HW,2013-11-26 20:57:00,
2013-11-26 16:02:00,30.4,23.1,30.05,ENE,68,0.0,4.3,74,0.00,,,0.00,WUHU216HW,2013-11-26 21:02:00,
2013-11-26 16:07:00,30.4,23.1,30.06,SSE,158,0.7,4.0,74,0.00,,,0.00,WUHU216HW,2013-11-26 21:07:00,
2013-11-26 16:12:00,30.4,23.1,30.06,South,180,2.0,4.0,74,0.00,,,0.00,WUHU216HW,2013-11-26 21:12:00,
2013-11-26 16:17:00,30.4,23.5,30.05,NNE,23,0.2,2.2,75,0.00,,,0.00,WUHU216HW,2013-11-26 21:17:00,
2013-11-26 16:22:00,30.2,23.3,30.05,NNW,338,0.4,2.2,75,0.00,,,0.00,WUHU216HW,2013-11-26 21:22:00,
2013-11-26 16:27:00,30.4,23.5,30.04,NNW,338,0.4,1.8,75,0.00,,,0.00,WUHU216HW,2013-11-26 21:27:00,
2013-11-26 16:32:00,30.2,23.3,30.04,East,90,0.4,1.8,75,0.00,,,0.00,WUHU216HW,2013-11-26 21:32:00,
2013-11-26 16:37:00,30.2,23.3,30.04,SSW,203,0.4,2.0,75,0.00,,,0.00,WUHU216HW,2013-11-26 21:37:00,
2013-11-26 16:42:00,30.2,23.6,30.03,SSW,203,0.4,2.0,76,0.00,,,0.00,WUHU216HW,2013-11-26 21:42:00,
2013-11-26 16:47:00,30.2,23.6,30.03,NW,315,1.1,4.0,76,0.00,,,0.00,WUHU216HW,2013-11-26 21:47:00,
2013-11-26 16:52:00,30.0,23.4,30.03,NNE,23,0.4,4.0,76,0.00,,,0.00,WUHU216HW,2013-11-26 21:52:00,
2013-11-26 16:57:00,30.0,23.4,30.03,SSE,158,1.6,5.1,76,0.00,,,0.00,WUHU216HW,2013-11-26 21:57:00,
2013-11-26 17:02:00,30.2,23.6,30.03,SSE,158,2.0,5.1,76,0.00,,,0.00,WUHU216HW,2013-11-26 22:02:00,
2013-11-26 17:07:00,30.2,23.6,30.03,SSE,158,1.6,3.4,76,0.00,,,0.00,WUHU216HW,2013-11-26 22:07:00,
2013-11-26 17:12:00,30.2,23.9,30.03,SSW,203,1.8,2.2,77,0.00,,,0.00,WUHU216HW,2013-11-26 22:12:00,
2013-11-26 17:17:00,30.2,23.9,30.03,SSE,158,2.5,3.1,77,0.00,,,0.00,WUHU216HW,2013-11-26 22:17:00,
2013-11-26 17:22:00,30.4,24.1,30.03,South,180,0.7,3.1,77,0.00,,,0.00,WUHU216HW,2013-11-26 22:22:00,
2013-11-26 17:27:00,30.4,24.1,30.03,South,180,1.1,3.4,77,0.00,,,0.00,WUHU216HW,2013-11-26 22:27:00,
2013-11-26 17:32:00,30.4,24.1,30.03,SSE,158,4.5,4.5,77,0.00,,,0.00,WUHU216HW,2013-11-26 22:32:00,
2013-11-26 17:37:00,30.4,24.1,30.03,SSW,203,3.4,4.5,77,0.00,,,0.00,WUHU216HW,2013-11-26 22:37:00,
2013-11-26 17:42:00,30.4,24.4,30.02,SSE,158,1.3,5.4,78,0.00,,,0.00,WUHU216HW,2013-11-26 22:42:00,
2013-11-26 17:47:00,30.4,24.4,30.02,SSE,158,1.1,5.4,78,0.00,,,0.00,WUHU216HW,2013-11-26 22:47:00,
2013-11-26 17:52:00,30.4,24.4,30.02,SSW,203,1.3,3.4,78,0.00,,,0.00,WUHU216HW,2013-11-26 22:52:00,
2013-11-26 17:57:00,30.4,24.4,30.02,SSW,203,3.1,3.6,78,0.00,,,0.00,WUHU216HW,2013-11-26 22:57:00,
2013-11-26 18:02:00,30.6,24.6,30.03,SSW,203,2.7,3.6,78,0.00,,,0.00,WUHU216HW,2013-11-26 23:02:00,
2013-11-26 18:07:00,30.6,24.9,30.03,SSW,203,0.9,5.4,79,0.00,,,0.00,WUHU216HW,2013-11-26 23:07:00,
2013-11-26 18:12:00,30.4,24.4,30.02,SSW,203,1.1,5.4,78,0.00,,,0.00,WUHU216HW,2013-11-26 23:12:00,
2013-11-26 18:17:00,30.6,24.9,30.02,SSW,203,0.7,3.1,79,0.00,,,0.00,WUHU216HW,2013-11-26 23:17:00,
2013-11-26 18:22:00,30.6,24.9,30.02,SSW,203,0.4,3.8,79,0.00,,,0.00,WUHU216HW,2013-11-26 23:22:00,
2013-11-26 18:27:00,30.6,24.9,30.02,SSW,203,0.9,3.8,79,0.00,,,0.00,WUHU216HW,2013-11-26 23:27:00,
2013-11-26 18:32:00,30.8,25.1,30.02,SSW,203,0.2,2.7,79,0.00,,,0.00,WUHU216HW,2013-11-26 23:32:00,
2013-11-26 18:37:00,30.8,25.1,30.01,SSW,203,4.0,4.0,79,0.00,,,0.00,WUHU216HW,2013-11-26 23:37:00,
2013-11-26 18:42:00,30.8,25.4,30.01,SSW,203,0.7,4.0,80,0.00,,,0.00,WUHU216HW,2013-11-26 23:42:00,
2013-11-26 18:47:00,30.8,25.4,30.01,SSW,203,3.6,4.7,80,0.00,,,0.00,WUHU216HW,2013-11-26 23:47:00,
2013-11-26 18:52:00,30.8,25.4,30.00,SSW,203,4.5,4.7,80,0.00,,,0.00,WUHU216HW,2013-11-26 23:52:00,
2013-11-26 18:57:00,30.9,25.5,30.00,SSW,203,1.1,4.5,80,0.00,,,0.00,WUHU216HW,2013-11-26 23:57:00,
2013-11-26 19:02:00,30.9,25.5,30.00,SSW,203,0.4,2.9,80,0.00,,,0.00,WUHU216HW,2013-11-27 00:02:00,
2013-11-26 19:07:00,30.9,25.5,30.00,SSW,203,1.6,2.9,80,0.00,,,0.00,WUHU216HW,2013-11-27 00:07:00,
2013-11-26 19:12:00,31.1,25.7,30.00,SSW,203,0.0,2.5,80,0.00,,,0.00,WUHU216HW,2013-11-27 00:12:00,
2013-11-26 19:17:00,31.1,25.7,29.99,SSW,203,0.0,2.0,80,0.00,,,0.00,WUHU216HW,2013-11-27 00:17:00,
2013-11-26 19:22:00,31.1,25.7,29.99,SSW,203,1.3,1.6,80,0.00,,,0.00,WUHU216HW,2013-11-27 00:22:00,
2013-11-26 19:27:00,31.3,25.9,29.98,SSW,203,1.6,4.7,80,0.00,,,0.00,WUHU216HW,2013-11-27 00:27:00,
2013-11-26 19:32:00,31.3,25.9,29.98,SSW,203,0.7,5.1,80,0.00,,,0.00,WUHU216HW,2013-11-27 00:32:00,
2013-11-26 19:37:00,31.5,26.0,29.97,SSW,203,1.6,5.1,80,0.00,,,0.00,WUHU216HW,2013-11-27 00:37:00,
2013-11-26 19:42:00,31.5,26.0,29.97,SSW,203,0.9,2.0,80,0.00,,,0.00,WUHU216HW,2013-11-27 00:42:00,
2013-11-26 19:47:00,31.5,26.3,29.97,SSW,203,0.9,2.5,81,0.00,,,0.00,WUHU216HW,2013-11-27 00:47:00,
2013-11-26 19:52:00,31.5,26.3,29.96,SSW,203,0.4,2.5,81,0.00,,,0.00,WUHU216HW,2013-11-27 00:52:00,
2013-11-26 19:57:00,31.5,26.3,29.96,SSW,203,0.4,2.5,81,0.00,,,0.00,WUHU216HW,2013-11-27 00:57:00,
2013-11-26 20:02:00,31.5,26.3,29.96,SSW,203,2.5,2.5,81,0.00,,,0.00,WUHU216HW,2013-11-27 01:02:00,
2013-11-26 20:07:00,31.5,26.3,29.95,SSW,203,0.0,2.5,81,0.00,,,0.00,WUHU216HW,2013-11-27 01:07:00,
2013-11-26 20:12:00,31.5,26.3,29.95,SSW,203,0.7,3.6,81,0.00,,,0.00,WUHU216HW,2013-11-27 01:12:00,
2013-11-26 20:17:00,31.5,26.6,29.94,SSW,203,0.4,3.6,82,0.00,,,0.00,WUHU216HW,2013-11-27 01:17:00,
2013-11-26 20:22:00,31.5,26.6,29.94,SSW,203,1.8,2.7,82,0.00,,,0.00,WUHU216HW,2013-11-27 01:22:00,
2013-11-26 20:27:00,31.5,26.3,29.93,SSW,203,3.1,4.7,81,0.00,,,0.00,WUHU216HW,2013-11-27 01:27:00,
2013-11-26 20:32:00,31.7,26.5,29.93,SSW,203,2.5,4.7,81,0.00,,,0.00,WUHU216HW,2013-11-27 01:32:00,
2013-11-26 20:37:00,31.7,26.5,29.92,SSW,203,2.0,3.8,81,0.00,,,0.00,WUHU216HW,2013-11-27 01:37:00,
2013-11-26 20:42:00,31.7,26.5,29.92,SSW,203,2.5,6.7,81,0.00,,,0.00,WUHU216HW,2013-11-27 01:42:00,
2013-11-26 20:47:00,31.7,26.5,29.92,SSW,203,1.6,6.7,81,0.00,,,0.00,WUHU216HW,2013-11-27 01:47:00,
2013-11-26 20:52:00,31.7,26.5,29.91,SSW,203,2.5,4.0,81,0.00,,,0.00,WUHU216HW,2013-11-27 01:52:00,
2013-11-26 20:57:00,31.8,26.6,29.91,SSW,203,2.9,4.0,81,0.00,,,0.00,WUHU216HW,2013-11-27 01:57:00,
2013-11-26 21:02:00,31.8,26.6,29.90,SSW,203,2.5,3.6,81,0.00,,,0.00,WUHU216HW,2013-11-27 02:02:00,
2013-11-26 21:07:00,31.8,26.6,29.90,SSW,203,2.9,3.6,81,0.00,,,0.00,WUHU216HW,2013-11-27 02:07:00,
2013-11-26 21:12:00,31.8,26.9,29.89,SSW,203,1.3,2.9,82,0.00,,,0.00,WUHU216HW,2013-11-27 02:12:00,
2013-11-26 21:17:00,32.0,27.4,29.89,SSW,203,2.7,4.7,83,0.00,,,0.00,WUHU216HW,2013-11-27 02:17:00,
2013-11-26 21:22:00,32.0,27.4,29.88,SSW,203,2.5,4.7,83,0.00,,,0.00,WUHU216HW,2013-11-27 02:22:00,
2013-11-26 21:27:00,32.2,27.6,29.88,SSW,203,1.3,2.7,83,0.00,,,0.00,WUHU216HW,2013-11-27 02:27:00,
2013-11-26 21:32:00,32.2,27.6,29.87,SSW,203,0.9,1.6,83,0.00,,,0.00,WUHU216HW,2013-11-27 02:32:00,
2013-11-26 21:37:00,32.2,27.6,29.87,SSW,203,1.1,1.6,83,0.00,,,0.00,WUHU216HW,2013-11-27 02:37:00,
2013-11-26 21:42:00,32.2,27.6,29.87,SSW,203,0.7,3.4,83,0.00,,,0.00,WUHU216HW,2013-11-27 02:42:00,
2013-11-26 21:47:00,32.2,27.6,29.86,SSW,203,1.8,3.4,83,0.00,,,0.00,WUHU216HW,2013-11-27 02:47:00,
2013-11-26 21:52:00,32.4,27.8,29.86,SSW,203,0.4,1.8,83,0.00,,,0.00,WUHU216HW,2013-11-27 02:52:00,
2013-11-26 21:57:00,32.4,27.8,29.85,SSW,203,1.8,2.0,83,0.00,,,0.00,WUHU216HW,2013-11-27 02:57:00,
2013-11-26 22:02:00,32.6,28.0,29.84,SSW,203,2.5,3.6,83,0.00,,,0.00,WUHU216HW,2013-11-27 03:02:00,
2013-11-26 22:07:00,32.6,28.0,29.84,SSW,203,3.1,3.6,83,0.00,,,0.00,WUHU216HW,2013-11-27 03:07:00,
2013-11-26 22:12:00,32.6,28.3,29.83,SSW,203,1.8,3.1,84,0.00,,,0.00,WUHU216HW,2013-11-27 03:12:00,
2013-11-26 22:17:00,32.7,28.4,29.83,SSW,203,2.0,3.1,84,0.00,,,0.00,WUHU216HW,2013-11-27 03:17:00,
2013-11-26 22:22:00,32.7,28.4,29.82,East,90,0.4,2.0,84,0.00,,,0.00,WUHU216HW,2013-11-27 03:22:00,
2013-11-26 22:27:00,32.9,28.6,29.82,ESE,113,0.7,2.0,84,0.00,,,0.00,WUHU216HW,2013-11-27 03:27:00,
2013-11-26 22:32:00,32.9,28.6,29.81,ESE,113,2.2,2.2,84,0.00,,,0.00,WUHU216HW,2013-11-27 03:32:00,
2013-11-26 22:37:00,33.1,28.8,29.80,East,90,2.0,2.2,84,0.00,,,0.00,WUHU216HW,2013-11-27 03:37:00,
2013-11-26 22:42:00,33.3,29.0,29.79,ESE,113,0.9,2.5,84,0.00,,,0.00,WUHU216HW,2013-11-27 03:42:00,
2013-11-26 22:47:00,33.5,29.2,29.78,NNE,23,1.1,2.5,84,0.00,,,0.00,WUHU216HW,2013-11-27 03:47:00,
2013-11-26 22:52:00,33.6,29.3,29.77,SSE,158,0.4,2.5,84,0.00,,,0.00,WUHU216HW,2013-11-27 03:52:00,
2013-11-26 22:57:00,33.6,29.3,29.77,ENE,68,1.6,2.5,84,0.00,,,0.00,WUHU216HW,2013-11-27 03:57:00,
2013-11-26 23:02:00,33.8,29.5,29.76,SSE,158,1.1,2.7,84,0.00,,,0.00,WUHU216HW,2013-11-27 04:02:00,
2013-11-26 23:07:00,34.0,29.7,29.76,ESE,113,1.8,2.7,84,0.00,,,0.00,WUHU216HW,2013-11-27 04:07:00,
2013-11-26 23:12:00,34.2,29.9,29.75,East,90,0.4,1.8,84,0.00,,,0.00,WUHU216HW,2013-11-27 04:12:00,
2013-11-26 23:17:00,34.4,30.0,29.74,ENE,68,0.2,1.8,84,0.00,,,0.00,WUHU216HW,2013-11-27 04:17:00,
2013-11-26 23:22:00,34.5,30.1,29.73,ESE,113,1.6,1.6,84,0.00,,,0.00,WUHU216HW,2013-11-27 04:22:00,
2013-11-26 23:27:00,34.7,30.3,29.73,ESE,113,2.0,2.2,84,0.00,,,0.00,WUHU216HW,2013-11-27 04:27:00,
2013-11-26 23:32:00,35.1,31.0,29.72,SW,225,0.7,2.2,85,0.00,,,0.00,WUHU216HW,2013-11-27 04:32:00,
2013-11-26 23:37:00,35.3,31.2,29.71,SE,135,1.8,2.5,85,0.00,,,0.00,WUHU216HW,2013-11-27 04:37:00,
2013-11-26 23:42:00,35.4,31.3,29.69,ESE,113,3.4,3.4,85,0.00,,,0.00,WUHU216HW,2013-11-27 04:42:00,
2013-11-26 23:47:00,35.8,31.7,29.68,NE,45,2.0,3.4,85,0.00,,,0.00,WUHU216HW,2013-11-27 04:47:00,
2013-11-26 23:52:00,36.2,32.1,29.68,SE,135,0.7,2.2,85,0.00,,,0.00,WUHU216HW,2013-11-27 04:52:00,
2013-11-26 23:57:00,36.3,32.2,29.67,West,270,0.7,2.5,85,0.00,,,0.00,WUHU216HW,2013-11-27 04:57:00,